• In Hungary
  • List of Countries
  • For 7 days
  • Water Temperature
  • Satellite Maps
  • Weather Map
  • News
  • Weather Widgets
  • user-avatar
    Login

    Hourly Weather Rechnaya

    Today, 26 September, Wednesday

    Time Temperature Precipitation Wind Pressure Humidity
    00:00 +8°C° 0 mm 4 mps 748 mmHg 87%
    01:00 +7°C° 0 mm 4 mps 748 mmHg 89%
    02:00 +6°C° 0 mm 4 mps 749 mmHg 90%
    03:00 +6°C° 0 mm 4 mps 749 mmHg 91%
    04:00 +6°C° 0 mm 4 mps 750 mmHg 91%
    05:00 +6°C° 0 mm 4 mps 750 mmHg 90%
    06:00 +7°C° 0 mm 5 mps 751 mmHg 90%
    07:00 +7°C° 0 mm 5 mps 752 mmHg 87%
    08:00 +8°C° 0 mm 5 mps 752 mmHg 84%
    09:00 +8°C° 0 mm 5 mps 753 mmHg 81%
    10:00 +8°C° 0 mm 5 mps 754 mmHg 79%
    11:00 +8°C° 0 mm 5 mps 754 mmHg 78%
    12:00 +8°C° 0 mm 4 mps 755 mmHg 76%
    13:00 +8°C° 0 mm 4 mps 755 mmHg 75%
    14:00 +8°C° 0 mm 4 mps 756 mmHg 73%
    15:00 +8°C° 0 mm 4 mps 756 mmHg 72%
    16:00 +9°C° 0 mm 3 mps 756 mmHg 73%
    17:00 +8°C° 0 mm 3 mps 757 mmHg 74%
    18:00 +8°C° 0 mm 3 mps 757 mmHg 75%
    19:00 +7°C° 0 mm 3 mps 757 mmHg 75%
    20:00 +7°C° 0 mm 3 mps 757 mmHg 75%
    21:00 +5°C° 0 mm 3 mps 757 mmHg 76%
    22:00 +5°C° 0 mm 3 mps 756 mmHg 78%
    23:00 +4°C° 0 mm 3 mps 756 mmHg 80%

    Tomorrow, 27 September, Thursday

    Time Temperature Precipitation Wind Pressure Humidity
    00:00 +3°C° 0 mm 3 mps 756 mmHg 82%
    01:00 +3°C° 0 mm 3 mps 755 mmHg 81%
    02:00 +3°C° 0 mm 4 mps 755 mmHg 81%
    03:00 +3°C° 0 mm 4 mps 754 mmHg 81%
    04:00 +3°C° 0 mm 4 mps 754 mmHg 80%
    05:00 +2°C° 0 mm 5 mps 753 mmHg 80%
    06:00 +2°C° 0 mm 5 mps 752 mmHg 80%
    07:00 +3°C° 0 mm 6 mps 751 mmHg 74%
    08:00 +4°C° 0 mm 7 mps 750 mmHg 68%
    09:00 +5°C° 0 mm 8 mps 750 mmHg 63%
    10:00 +6°C° 0.2 mm 8 mps 749 mmHg 63%
    11:00 +6°C° 0.2 mm 8 mps 748 mmHg 64%
    12:00 +6°C° 0.2 mm 9 mps 747 mmHg 65%
    13:00 +5°C° 0.6 mm 9 mps 746 mmHg 69%
    14:00 +5°C° 0.6 mm 8 mps 746 mmHg 73%
    15:00 +5°C° 0.6 mm 8 mps 745 mmHg 77%
    16:00 +4°C° 1.1 mm 8 mps 744 mmHg 80%
    17:00 +4°C° 1.1 mm 7 mps 744 mmHg 83%
    18:00 +4°C° 1.1 mm 6 mps 743 mmHg 86%
    19:00 +4°C° 0.4 mm 6 mps 743 mmHg 87%
    20:00 +5°C° 0.4 mm 5 mps 743 mmHg 88%
    21:00 +6°C° 0.4 mm 4 mps 743 mmHg 90%
    22:00 +5°C° 0 mm 5 mps 743 mmHg 89%
    23:00 +5°C° 0 mm 5 mps 744 mmHg 89%

    Day after tomorrow, 28 September, Friday

    Time Temperature Precipitation Wind Pressure Humidity
    00:00 +3°C° 0 mm 5 mps 744 mmHg 88%
    01:00 +3°C° 0 mm 5 mps 745 mmHg 89%
    02:00 +3°C° 0 mm 5 mps 745 mmHg 89%
    03:00 +2°C° 0 mm 5 mps 746 mmHg 89%
    04:00 +2°C° 0 mm 5 mps 746 mmHg 90%
    05:00 +2°C° 0 mm 5 mps 746 mmHg 90%
    06:00 +2°C° 0 mm 5 mps 746 mmHg 91%
    07:00 +3°C° 0 mm 5 mps 746 mmHg 86%
    08:00 +4°C° 0 mm 6 mps 747 mmHg 81%
    09:00 +5°C° 0 mm 7 mps 747 mmHg 75%
    10:00 +6°C° 0.1 mm 7 mps 747 mmHg 71%
    11:00 +8°C° 0.1 mm 7 mps 747 mmHg 67%
    12:00 +9°C° 0.1 mm 7 mps 747 mmHg 63%
    13:00 +8°C° 1.1 mm 6 mps 746 mmHg 71%
    14:00 +7°C° 1.1 mm 6 mps 745 mmHg 79%
    15:00 +7°C° 1.1 mm 5 mps 745 mmHg 87%
    16:00 +8°C° 1.7 mm 6 mps 744 mmHg 87%
    17:00 +9°C° 1.7 mm 7 mps 743 mmHg 86%
    18:00 +10°C° 1.7 mm 8 mps 741 mmHg 86%
    19:00 +10°C° 1 mm 8 mps 741 mmHg 86%
    20:00 +10°C° 1 mm 8 mps 741 mmHg 86%
    21:00 +11°C° 1 mm 8 mps 741 mmHg 86%
    22:00 +9°C° 0.2 mm 8 mps 743 mmHg 84%
    23:00 +8°C° 0.2 mm 7 mps 744 mmHg 83%

    29 September, Saturday

    Time Temperature Precipitation Wind Pressure Humidity
    00:00 +5°C° 0.2 mm 7 mps 745 mmHg 81%
    01:00 +4°C° 0 mm 6 mps 747 mmHg 83%
    02:00 +3°C° 0 mm 5 mps 748 mmHg 85%
    03:00 +2°C° 0 mm 5 mps 749 mmHg 87%
    04:00 +3°C° 0 mm 4 mps 750 mmHg 88%
    05:00 +3°C° 0 mm 4 mps 751 mmHg 90%
    06:00 +1°C° 0 mm 4 mps 751 mmHg 91%
    07:00 +2°C° 0 mm 5 mps 752 mmHg 84%
    08:00 +3°C° 0 mm 5 mps 753 mmHg 77%
    09:00 +4°C° 0 mm 6 mps 753 mmHg 70%
    10:00 +5°C° 0 mm 6 mps 754 mmHg 63%
    11:00 +7°C° 0 mm 6 mps 754 mmHg 57%
    12:00 +8°C° 0 mm 6 mps 755 mmHg 50%
    13:00 +8°C° 0 mm 6 mps 755 mmHg 49%
    14:00 +8°C° 0 mm 6 mps 755 mmHg 48%
    15:00 +8°C° 0 mm 5 mps 756 mmHg 47%
    16:00 +7°C° 0 mm 4 mps 756 mmHg 52%
    17:00 +7°C° 0 mm 3 mps 756 mmHg 56%
    18:00 +5°C° 0 mm 2 mps 757 mmHg 61%
    19:00 +5°C° 0 mm 2 mps 757 mmHg 63%
    20:00 +5°C° 0 mm 2 mps 758 mmHg 65%
    21:00 +4°C° 0 mm 2 mps 758 mmHg 67%
    22:00 +4°C° 0 mm 2 mps 758 mmHg 69%
    23:00 +4°C° 0 mm 2 mps 759 mmHg 70%

    30 September, Sunday

    Time Temperature Precipitation Wind Pressure Humidity
    00:00 +4°C° 0 mm 2 mps 759 mmHg 72%
    01:00 +3°C° 0 mm 2 mps 759 mmHg 75%
    02:00 +2°C° 0 mm 2 mps 759 mmHg 78%
    03:00 +2°C° 0 mm 2 mps 760 mmHg 80%
    04:00 +2°C° 0 mm 2 mps 760 mmHg 83%
    05:00 +1°C° 0 mm 2 mps 760 mmHg 85%
    06:00 +1°C° 0 mm 2 mps 760 mmHg 87%
    07:00 +1°C° 0 mm 3 mps 761 mmHg 79%
    08:00 +3°C° 0 mm 3 mps 761 mmHg 70%
    09:00 +4°C° 0 mm 3 mps 761 mmHg 61%
    10:00 +5°C° 0 mm 3 mps 762 mmHg 57%
    11:00 +6°C° 0 mm 4 mps 762 mmHg 54%
    12:00 +7°C° 0 mm 4 mps 762 mmHg 50%
    13:00 +7°C° 0 mm 4 mps 762 mmHg 49%
    14:00 +7°C° 0 mm 4 mps 762 mmHg 48%
    15:00 +7°C° 0 mm 4 mps 761 mmHg 47%
    16:00 +5°C° 0 mm 3 mps 762 mmHg 52%
    17:00 +4°C° 0 mm 3 mps 762 mmHg 57%
    18:00 +4°C° 0 mm 2 mps 762 mmHg 62%
    19:00 +3°C° 0 mm 2 mps 762 mmHg 65%
    20:00 +3°C° 0 mm 2 mps 762 mmHg 68%
    21:00 +3°C° 0 mm 2 mps 762 mmHg 70%
    22:00 +2°C° 0 mm 2 mps 762 mmHg 71%
    23:00 +1°C° 0 mm 3 mps 762 mmHg 72%

    1 October, Monday

    Time Temperature Precipitation Wind Pressure Humidity
    00:00 +1°C° 0 mm 3 mps 762 mmHg 73%
    01:00 +1°C° 0 mm 3 mps 762 mmHg 73%
    02:00 +1°C° 0 mm 3 mps 762 mmHg 72%
    03:00 +1°C° 0 mm 3 mps 762 mmHg 71%
    04:00 +1°C° 0 mm 3 mps 761 mmHg 71%
    05:00 +1°C° 0 mm 3 mps 761 mmHg 70%
    06:00 0°C° 0 mm 4 mps 761 mmHg 70%
    07:00 +1°C° 0 mm 4 mps 761 mmHg 65%
    08:00 +4°C° 0 mm 4 mps 761 mmHg 59%
    09:00 +5°C° 0 mm 5 mps 761 mmHg 54%
    10:00 +6°C° 0 mm 5 mps 761 mmHg 50%
    11:00 +8°C° 0 mm 5 mps 761 mmHg 47%
    12:00 +9°C° 0 mm 6 mps 760 mmHg 44%
    13:00 +9°C° 0 mm 5 mps 760 mmHg 44%
    14:00 +9°C° 0 mm 5 mps 760 mmHg 44%
    15:00 +10°C° 0 mm 5 mps 760 mmHg 44%
    16:00 +8°C° 0 mm 4 mps 760 mmHg 50%
    17:00 +7°C° 0 mm 3 mps 760 mmHg 56%
    18:00 +5°C° 0 mm 3 mps 760 mmHg 62%
    19:00 +4°C° 0 mm 3 mps 760 mmHg 64%
    20:00 +4°C° 0 mm 3 mps 760 mmHg 66%
    21:00 +3°C° 0 mm 3 mps 760 mmHg 68%
    22:00 +3°C° 0 mm 3 mps 760 mmHg 70%
    23:00 +3°C° 0 mm 2 mps 760 mmHg 71%
    Show more